{"data":{"norad_id":66369,"epoch":"2026-09-20T15:38:02.080608Z","epoch_age_seconds":80357,"freshness":"FRESH","line1":"1 66369U 25254X   26263.65141297  .00005528  00000+0  17463-3 0  9995","line2":"2 66369  53.1616  42.6819 0001332  95.5866 264.5289 15.34396604 48887","mean_motion":15.34396604,"eccentricity":0.0001332,"inclination_deg":53.1616,"raan_deg":42.6819,"arg_perigee_deg":95.5866,"mean_anomaly_deg":264.5289,"bstar":0.00017463,"rev_number":4888,"period_min":93.847965789684,"perigee_km":461.80213258893,"apogee_km":463.62453511787,"semimajor_km":6840.8503338534,"source":"CELESTRAK","updated_at":"2026-09-21T09:00:35.883490Z"}}